Temp
33 35 36 37 38 40 41 42 44 45 47 48 48 49 50 50 50 50 50 51 51 51 51 52 52 52 51 52 52 52 53 54 54 54 54 54 54 54 54 54 53 53
32 33 35 36 37 38 39 41 43 44 45 46 46 47 47 48 49 49 49 50 50 50 51 51 51 51 51 51 51 51 51 52 51 52 52 52 52 53 53 53 52 51
31 32 33 33 34 36 37 40 42 43 44 44 45 45 45 46 47 48 49 49 50 49 49 50 51 51 51 50 50 50 50 50 50 50 50 50 50 50 49 50 51 51
29 31 32 32 33 34 36 38 40 42 42 43 44 45 46 46 46 47 48 47 48 49 49 49 49 50 50 50 50 50 49 49 49 49 49 48 48 49 48 48 47 47
28 29 31 32 33 34 35 36 37 39 40 42 43 44 45 46 46 46 46 47 47 47 48 48 48 48 49 49 50 49 49 48 48 49 48 47 47 47 47 47 46 45
27 28 29 30 31 32 33 34 36 37 38 40 41 43 44 45 45 45 46 46 46 47 47 47 47 47 47 48 48 48 48 48 48 48 47 46 46 46 46 46 45 44
25 26 27 28 29 31 32 33 34 35 36 38 40 41 43 43 44 45 45 46 46 46 46 46 46 47 47 47 47 46 46 47 47 47 46 45 45 44 45 44 43 42
23 25 26 26 27 29 30 31 32 33 35 37 38 40 41 42 43 43 43 45 45 45 45 45 46 46 46 46 46 45 45 46 46 46 45 44 44 43 43 43 43 41
22 22 24 24 25 27 28 29 31 32 34 35 37 39 40 41 41 42 42 43 43 44 44 44 44 45 45 45 45 45 45 45 45 45 44 43 43 42 42 42 42 41
20 21 21 22 23 25 26 28 30 32 34 34 36 37 38 40 40 41 42 42 42 43 43 43 44 44 44 44 45 44 44 44 44 44 44 43 43 42 41 41 41 39
18 19 18 20 21 23 24 26 29 31 33 33 35 36 37 38 39 41 41 42 42 42 43 43 43 43 43 43 43 43 43 43 43 43 42 42 42 42 41 41 41 40
16 17 17 18 20 21 23 25 28 30 31 33 34 34 36 36 37 39 40 40 41 41 42 42 42 43 43 42 42 42 42 41 41 40 40 40 40 40 40 40 40 39
15 15 16 17 18 20 22 24 26 29 31 31 32 33 33 34 35 36 38 39 40 40 41 41 41 42 42 41 41 41 41 40 39 38 38 37 37 38 38 38 38 38
14 15 15 16 17 19 21 22 24 27 30 32 32 31 32 32 33 34 36 38 39 39 40 40 40 40 40 40 40 40 39 39 38 37 36 36 35 36 36 36 36 36
13 14 15 15 16 17 18 20 22 24 28 31 31 31 32 32 33 33 34 37 38 38 39 39 39 39 40 39 39 39 38 38 37 37 36 34 35 35 35 35 36 36
11 12 12 13 14 15 17 18 20 22 26 30 31 30 31 32 33 33 33 35 36 37 37 38 38 39 38 38 39 38 38 37 36 35 35 35 34 33 33 34 34 34
9 10 10 10 12 14 15 16 18 21 25 29 30 29 30 31 32 32 32 34 35 35 35 36 36 37 38 40 39 38 37 36 35 35 35 34 33 33 32 32 33 34
8 8 8 9 10 11 13 15 17 19 23 29 31 30 30 31 32 32 33 33 34 34 34 34 35 37 39 39 39 38 37 36 35 34 33 33 32 32 31 31 31 31
6 5 6 7 8 10 12 13 15 19 22 27 30 30 30 30 31 32 32 33 33 33 33 33 34 38 39 39 38 38 38 35 33 33 32 31 31 31 30 30 30 30
4 3 3 5 6 8 10 12 14 17 21 25 30 30 29 30 31 31 32 32 32 33 33 33 34 37 38 37 37 36 35 33 31 31 30 30 30 30 30 30 30 30
2 2 1 3 5 6 8 10 13 16 19 22 27 29 29 28 29 30 31 32 32 33 33 33 33 36 36 36 35 34 33 31 30 30 29 29 29 30 29 30 30 29
0 -0 0 1 3 5 7 9 12 15 17 21 24 28 29 29 29 30 30 31 32 32 33 32 34 36 35 35 34 33 32 30 29 28 28 28 28 28 29 29 29 29
-1 -2 -1 0 2 3 5 7 10 13 16 20 22 26 29 29 29 29 30 30 31 32 32 32 33 35 35 34 33 33 30 29 28 28 27 27 27 28 28 29 29 29
-2 -2 -1 -0 1 2 4 7 10 13 15 19 20 22 27 28 28 28 29 29 30 30 31 31 31 33 34 33 32 32 30 28 28 27 26 26 27 28 29 29 29 29
-2 -2 -2 -1 0 1 4 6 9 11 14 18 19 22 25 28 28 27 28 28 29 30 30 30 31 32 33 33 32 31 30 28 27 27 26 26 26 27 28 29 29 30
-3 -3 -2 -1 -0 1 4 6 10 12 13 16 18 22 25 27 27 27 26 27 28 28 29 30 30 31 32 33 32 31 30 28 28 26 25 26 26 27 27 28 29 30
MSLP
1021.54 1021.10 1020.70 1020.26 1019.86 1019.54 1019.14 1018.58 1018.02 1017.58 1017.06 1016.66 1016.34 1015.98 1015.78 1015.46 1015.22 1015.02 1014.86 1014.70 1014.58 1014.50 1014.38 1014.26 1014.14 1013.98 1013.94 1013.90 1014.02 1014.14 1014.30 1013.82 1013.62 1013.70 1013.94 1014.26 1014.34 1014.22 1014.50 1014.74 1014.98 1015.34
1021.82 1021.54 1021.14 1020.70 1020.14 1019.74 1019.38 1018.94 1018.42 1017.94 1017.46 1017.02 1016.70 1016.34 1015.98 1015.66 1015.34 1015.14 1014.94 1014.74 1014.58 1014.46 1014.38 1014.30 1014.18 1014.10 1013.98 1013.82 1013.82 1014.26 1014.38 1014.18 1013.98 1014.02 1014.10 1014.30 1014.54 1014.74 1014.86 1014.66 1014.54 1014.94
1022.38 1021.78 1021.34 1021.06 1020.74 1020.30 1019.82 1019.14 1018.62 1018.18 1017.78 1017.30 1016.86 1016.50 1016.22 1015.86 1015.54 1015.26 1015.06 1014.86 1014.66 1014.50 1014.42 1014.38 1014.30 1014.22 1014.10 1014.06 1013.98 1013.94 1014.22 1014.22 1014.10 1014.06 1014.18 1014.46 1014.70 1014.82 1015.14 1015.58 1015.30 1014.82
1022.90 1022.58 1022.06 1021.50 1020.98 1020.54 1020.02 1019.50 1018.94 1018.42 1017.98 1017.54 1017.14 1016.78 1016.46 1016.06 1015.74 1015.46 1015.22 1014.98 1014.82 1014.62 1014.54 1014.50 1014.42 1014.34 1014.26 1014.22 1014.14 1014.06 1014.18 1014.46 1014.42 1014.14 1014.26 1014.58 1014.82 1014.98 1015.34 1015.58 1016.10 1016.18
1023.70 1023.02 1022.46 1021.94 1021.42 1020.86 1020.30 1019.78 1019.38 1018.98 1018.54 1018.02 1017.42 1017.02 1016.62 1016.26 1015.94 1015.66 1015.38 1015.18 1014.98 1014.82 1014.70 1014.62 1014.58 1014.50 1014.46 1014.42 1014.42 1014.34 1014.34 1014.26 1014.26 1014.26 1014.54 1014.82 1015.10 1015.06 1015.42 1015.62 1016.10 1016.58
1023.98 1023.50 1022.94 1022.38 1021.90 1021.38 1020.78 1020.34 1019.86 1019.42 1018.90 1018.34 1017.82 1017.34 1016.90 1016.50 1016.22 1015.90 1015.62 1015.38 1015.18 1015.06 1014.90 1014.78 1014.66 1014.62 1014.58 1014.58 1014.62 1014.62 1014.58 1014.50 1014.50 1014.38 1014.62 1014.94 1015.30 1015.42 1015.54 1015.78 1016.10 1016.58
1024.58 1023.94 1023.26 1022.70 1022.14 1021.62 1021.18 1020.78 1020.30 1019.82 1019.34 1018.82 1018.14 1017.62 1017.22 1016.78 1016.42 1016.14 1015.86 1015.62 1015.42 1015.26 1015.14 1014.98 1014.82 1014.70 1014.62 1014.54 1014.58 1014.74 1014.90 1014.86 1014.74 1014.70 1014.86 1015.30 1015.42 1015.70 1015.90 1016.06 1016.34 1016.66
1024.90 1024.42 1023.78 1023.18 1022.58 1021.94 1021.42 1021.02 1020.58 1020.18 1019.70 1019.06 1018.50 1017.90 1017.50 1017.14 1016.74 1016.42 1016.14 1015.86 1015.62 1015.46 1015.34 1015.18 1015.06 1014.94 1014.90 1014.78 1014.66 1014.70 1014.82 1015.06 1015.10 1014.98 1015.10 1015.46 1015.58 1015.86 1016.14 1016.34 1016.54 1016.78
1025.50 1024.82 1024.14 1023.50 1022.98 1022.38 1021.90 1021.46 1020.86 1020.26 1019.78 1019.30 1018.82 1018.26 1017.74 1017.42 1017.06 1016.70 1016.38 1016.10 1015.86 1015.66 1015.50 1015.38 1015.26 1015.18 1015.10 1015.02 1015.02 1015.02 1015.02 1015.18 1015.30 1015.26 1015.22 1015.38 1015.70 1016.02 1016.30 1016.50 1016.70 1016.94
1025.86 1025.18 1024.42 1023.86 1023.42 1022.90 1022.46 1021.90 1021.30 1020.66 1019.98 1019.46 1018.94 1018.50 1018.06 1017.58 1017.26 1016.90 1016.54 1016.30 1016.06 1015.82 1015.70 1015.58 1015.46 1015.38 1015.30 1015.22 1015.18 1015.18 1015.26 1015.38 1015.50 1015.54 1015.54 1015.58 1015.74 1016.06 1016.34 1016.54 1016.74 1017.14
1026.50 1025.66 1024.86 1024.22 1023.78 1023.34 1022.90 1022.30 1021.58 1020.90 1020.34 1019.82 1019.18 1018.66 1018.22 1017.82 1017.42 1017.10 1016.86 1016.58 1016.38 1016.14 1015.94 1015.78 1015.70 1015.58 1015.46 1015.42 1015.38 1015.42 1015.46 1015.54 1015.66 1015.74 1015.82 1015.98 1016.14 1016.26 1016.42 1016.58 1016.82 1017.06
1026.74 1026.18 1025.66 1025.22 1024.58 1023.86 1023.22 1022.62 1021.94 1021.18 1020.66 1020.10 1019.62 1019.06 1018.50 1018.14 1017.82 1017.42 1017.18 1016.90 1016.66 1016.42 1016.22 1016.02 1015.90 1015.78 1015.66 1015.62 1015.62 1015.66 1015.74 1015.82 1015.86 1015.94 1016.10 1016.26 1016.42 1016.58 1016.74 1016.86 1017.02 1017.30
1026.98 1026.46 1026.14 1025.90 1025.50 1024.86 1023.94 1023.06 1022.26 1021.54 1020.82 1020.34 1019.86 1019.46 1018.98 1018.50 1018.14 1017.82 1017.46 1017.26 1016.90 1016.66 1016.46 1016.26 1016.10 1015.94 1015.86 1015.82 1015.82 1015.86 1015.94 1016.06 1016.22 1016.22 1016.34 1016.50 1016.66 1016.86 1017.10 1017.22 1017.30 1017.46
1027.74 1026.94 1026.38 1026.06 1025.78 1025.34 1024.62 1023.74 1022.90 1021.98 1021.10 1020.38 1020.02 1019.66 1019.22 1018.86 1018.46 1018.14 1017.78 1017.46 1017.18 1016.90 1016.66 1016.46 1016.30 1016.14 1016.10 1016.06 1016.06 1016.06 1016.14 1016.30 1016.46 1016.54 1016.66 1016.90 1017.14 1017.30 1017.46 1017.62 1017.66 1017.70
1028.30 1027.62 1027.14 1026.58 1025.94 1025.30 1024.66 1024.10 1023.42 1022.62 1021.58 1020.70 1020.18 1019.82 1019.42 1019.02 1018.66 1018.30 1017.98 1017.62 1017.34 1017.10 1016.86 1016.66 1016.54 1016.42 1016.34 1016.26 1016.26 1016.34 1016.42 1016.50 1016.66 1016.78 1016.90 1017.10 1017.42 1017.66 1017.82 1017.90 1018.02 1018.06
1028.66 1028.30 1027.90 1027.34 1026.70 1025.82 1025.02 1024.30 1023.66 1022.94 1022.02 1020.98 1020.34 1019.98 1019.58 1019.10 1018.74 1018.42 1018.18 1017.94 1017.62 1017.34 1017.14 1016.90 1016.78 1016.62 1016.54 1016.50 1016.54 1016.54 1016.66 1016.78 1016.98 1017.14 1017.14 1017.18 1017.46 1017.86 1018.22 1018.34 1018.38 1018.42
1029.02 1028.62 1028.26 1027.82 1027.14 1026.46 1025.74 1024.94 1024.06 1023.22 1022.22 1021.06 1020.42 1020.14 1019.74 1019.30 1018.86 1018.54 1018.30 1018.10 1017.86 1017.62 1017.38 1017.14 1016.98 1016.82 1016.70 1016.66 1016.74 1016.82 1016.94 1017.06 1017.22 1017.42 1017.54 1017.62 1017.70 1017.90 1018.26 1018.58 1018.78 1018.82
1029.38 1029.06 1028.62 1028.02 1027.42 1026.82 1026.14 1025.42 1024.62 1023.74 1022.58 1021.18 1020.46 1020.14 1019.82 1019.50 1018.98 1018.70 1018.46 1018.26 1018.02 1017.74 1017.50 1017.34 1017.10 1016.94 1016.82 1016.82 1016.94 1017.06 1017.18 1017.34 1017.54 1017.78 1018.02 1018.18 1018.26 1018.34 1018.50 1018.74 1019.02 1019.14
1029.86 1029.54 1029.06 1028.50 1027.94 1027.22 1026.46 1025.66 1024.86 1023.98 1022.98 1021.66 1020.74 1020.30 1019.90 1019.58 1019.26 1018.86 1018.58 1018.38 1018.14 1017.86 1017.66 1017.46 1017.26 1017.02 1017.02 1017.06 1017.14 1017.26 1017.42 1017.70 1017.98 1018.14 1018.34 1018.62 1018.82 1018.90 1018.90 1019.02 1019.18 1019.30
1030.30 1029.98 1029.50 1028.98 1028.30 1027.62 1026.82 1025.98 1025.10 1024.22 1023.34 1022.30 1021.06 1020.46 1020.10 1019.74 1019.38 1019.06 1018.66 1018.46 1018.30 1018.10 1017.86 1017.66 1017.46 1017.26 1017.22 1017.26 1017.38 1017.50 1017.78 1018.06 1018.38 1018.66 1018.86 1019.10 1019.30 1019.42 1019.34 1019.34 1019.38 1019.46
1030.78 1030.42 1029.98 1029.26 1028.58 1027.90 1027.06 1026.30 1025.42 1024.42 1023.54 1022.70 1021.58 1020.70 1020.30 1019.94 1019.62 1019.26 1018.74 1018.50 1018.38 1018.22 1018.02 1017.86 1017.70 1017.50 1017.50 1017.58 1017.74 1017.90 1018.14 1018.46 1018.78 1019.02 1019.30 1019.54 1019.78 1019.86 1019.82 1019.82 1020.02 1020.14
1031.30 1030.86 1030.30 1029.66 1028.90 1028.10 1027.34 1026.54 1025.62 1024.74 1023.90 1023.06 1022.06 1020.90 1020.26 1019.90 1019.58 1019.26 1018.90 1018.54 1018.42 1018.30 1018.10 1017.94 1017.78 1017.62 1017.66 1017.78 1017.98 1018.22 1018.46 1018.78 1019.06 1019.34 1019.66 1019.98 1020.22 1020.30 1020.26 1020.42 1020.54 1020.50
1031.74 1031.34 1030.58 1029.90 1029.18 1028.42 1027.62 1026.78 1025.82 1024.90 1024.02 1023.26 1022.50 1021.26 1020.26 1019.90 1019.62 1019.34 1019.06 1018.70 1018.46 1018.42 1018.22 1018.06 1017.90 1017.78 1017.82 1017.98 1018.14 1018.34 1018.62 1019.06 1019.30 1019.54 1019.90 1020.22 1020.58 1020.62 1020.66 1020.78 1020.98 1021.10
1031.90 1031.46 1030.78 1030.02 1029.34 1028.66 1027.78 1026.78 1025.94 1025.14 1024.42 1023.58 1022.98 1021.94 1020.62 1019.94 1019.66 1019.46 1019.22 1018.90 1018.58 1018.46 1018.38 1018.18 1018.10 1017.98 1017.98 1018.14 1018.34 1018.50 1018.66 1019.02 1019.46 1019.74 1020.18 1020.46 1020.70 1020.90 1021.02 1021.10 1021.22 1021.42
1031.86 1031.34 1030.90 1030.22 1029.46 1028.62 1027.82 1026.90 1026.02 1025.26 1024.38 1023.62 1022.94 1022.06 1020.86 1020.06 1019.74 1019.58 1019.34 1019.10 1018.78 1018.54 1018.42 1018.38 1018.26 1018.22 1018.14 1018.26 1018.38 1018.54 1018.82 1019.10 1019.42 1019.82 1020.26 1020.66 1020.90 1021.10 1021.26 1021.46 1021.62 1021.70
1031.94 1031.38 1030.74 1030.14 1029.38 1028.46 1027.66 1026.82 1025.86 1025.06 1024.38 1023.62 1022.74 1021.86 1020.78 1020.06 1019.82 1019.54 1019.38 1019.22 1018.98 1018.70 1018.46 1018.38 1018.38 1018.34 1018.30 1018.34 1018.46 1018.66 1018.82 1019.06 1019.38 1019.66 1020.22 1020.62 1020.98 1021.18 1021.26 1021.42 1021.54 1021.58
Wind_Speed
12 11 11 11 10 9 10 12 10 10 10 9 8 8 7 7 7 6 5 5 4 5 5 4 3 1 1 1 2 3 5 4 5 4 6 5 4 9 11 11 9 7
14 13 11 10 10 11 11 10 10 10 10 9 8 8 7 7 7 6 6 6 5 5 5 4 3 2 2 2 2 1 2 2 3 2 4 4 3 2 3 7 10 9
15 15 15 14 12 13 13 12 10 10 9 10 9 8 8 7 7 6 6 5 5 5 5 4 3 1 2 2 3 5 3 1 4 4 5 4 3 4 2 1 0 8
16 14 13 14 13 13 12 11 12 11 11 11 11 9 8 7 7 7 6 5 5 4 4 3 3 2 1 1 2 3 4 3 2 5 6 5 4 5 5 5 4 4
15 14 13 13 13 13 12 12 13 13 12 11 11 11 10 9 8 7 6 6 4 4 3 3 2 2 2 1 0 2 2 4 4 5 6 6 4 6 6 7 6 5
15 14 13 13 13 12 12 12 13 13 13 13 12 10 10 9 8 7 6 5 5 4 3 2 0 1 1 2 2 1 1 3 3 6 7 7 6 5 6 7 8 7
16 15 16 14 14 14 12 12 12 12 12 12 11 10 10 10 10 8 7 6 5 4 3 2 1 0 0 3 3 2 1 1 4 5 7 6 7 7 6 7 7 8
16 14 14 14 15 14 13 14 13 12 11 12 12 11 9 10 10 8 7 6 5 4 3 2 1 0 0 1 3 4 4 2 2 5 7 6 7 7 6 6 7 9
15 15 15 16 16 14 15 14 14 13 12 12 12 11 10 9 9 8 8 6 5 4 3 2 1 1 0 1 2 3 4 3 3 4 7 8 8 7 7 7 8 8
15 16 17 16 16 14 16 15 14 13 12 12 12 10 10 9 8 8 8 7 6 5 3 3 2 1 0 1 2 3 4 4 3 3 4 6 8 8 8 7 8 8
15 15 16 18 18 15 16 16 14 13 11 12 12 11 10 9 8 7 8 7 7 6 5 3 3 1 1 1 2 3 4 4 4 4 5 5 6 6 6 8 8 9
14 13 15 17 18 18 18 16 15 13 12 11 10 11 10 8 8 8 7 8 7 6 5 4 2 1 0 1 3 4 4 4 5 6 6 6 6 5 5 5 7 8
16 15 14 13 14 16 16 16 16 15 13 12 10 9 8 8 8 8 7 7 7 6 5 4 2 1 1 2 3 4 5 5 6 7 8 8 7 8 7 6 6 6
14 15 15 14 13 13 14 15 15 15 14 12 10 8 7 7 7 7 7 6 6 5 5 4 2 1 1 2 2 4 5 6 8 9 9 7 7 7 6 6 7 7
13 13 13 15 15 14 15 14 14 14 15 12 10 8 6 6 6 6 6 6 6 5 5 4 3 1 0 2 4 4 5 7 7 8 8 7 8 8 7 6 5 6
12 12 13 14 14 15 15 15 15 15 14 12 9 8 7 6 6 5 5 6 6 5 4 3 3 2 1 1 1 3 5 6 6 7 9 9 10 9 7 6 6 7
13 13 13 14 13 13 14 15 16 15 15 13 9 7 7 7 5 6 5 5 5 4 4 3 3 2 2 3 4 5 4 5 7 6 5 6 7 9 9 8 7 7
12 14 14 14 14 14 14 14 14 15 15 14 10 9 7 6 6 5 5 5 4 3 3 3 2 1 3 5 7 7 6 5 5 5 5 5 5 7 7 8 8 8
13 14 14 14 14 15 14 13 13 14 14 15 12 9 7 6 6 5 5 5 3 3 2 2 1 3 7 8 10 10 10 7 5 5 5 5 5 6 7 7 7 8
13 14 15 14 14 14 13 14 13 13 14 14 12 8 7 7 6 5 4 4 3 2 1 1 2 6 10 11 12 14 14 11 7 6 7 7 6 5 5 6 6 8
14 14 15 15 14 14 13 13 13 13 14 13 13 9 7 6 6 6 5 4 3 1 1 1 2 9 12 14 14 16 16 11 7 7 7 8 7 6 6 7 6 5
14 15 15 15 14 14 14 14 13 13 13 13 14 11 7 5 5 4 4 4 3 1 1 3 4 12 13 15 17 17 15 8 8 8 8 7 7 6 6 6 5 6
13 14 15 15 14 14 14 14 14 14 13 11 13 13 8 6 5 4 4 3 2 1 1 3 4 10 15 16 17 17 12 9 8 8 7 8 6 6 6 6 5 5
14 13 15 15 14 14 14 14 13 12 12 10 11 14 11 6 5 4 3 3 1 1 0 3 4 9 15 16 16 14 11 9 7 7 8 9 9 6 5 6 7 8
13 13 14 15 15 15 13 15 14 13 12 11 11 12 11 6 4 3 2 1 1 2 2 3 5 8 15 16 16 16 11 9 7 8 9 8 8 7 5 5 7 7
13 14 14 13 15 15 14 14 13 12 13 12 11 11 10 5 4 3 2 1 1 1 2 3 6 6 10 17 16 16 14 7 6 8 9 10 8 7 8 6 7 7
Wind_Direction
358 357 354 354 350 349 344 341 340 337 338 336 333 329 326 317 318 315 306 301 294 291 290 284 283 246 101 50 341 306 291 236 178 169 176 189 202 168 170 168 160 156
353 355 351 350 349 350 345 340 334 337 334 334 332 327 325 325 319 320 314 310 309 302 305 301 286 258 242 186 135 331 284 201 133 104 143 156 151 159 204 177 152 140
353 351 353 354 350 344 342 338 337 338 339 333 331 336 328 326 322 321 315 315 310 310 314 317 317 280 232 185 175 147 162 170 126 108 104 99 82 106 74 343 79 153
349 350 348 347 347 345 342 344 346 343 341 342 339 332 328 322 321 319 319 317 310 309 320 333 338 341 306 257 162 148 142 137 147 117 107 91 86 99 90 85 52 32
344 344 347 346 346 344 344 349 350 345 340 335 333 336 332 332 328 322 320 316 321 316 331 342 355 3 2 357 117 144 143 132 133 121 114 108 108 111 112 109 102 81
345 345 346 347 346 346 346 348 345 344 339 337 335 330 331 329 326 323 321 318 320 318 315 338 17 15 38 42 27 36 99 124 127 126 123 122 113 103 114 115 114 105
345 346 345 346 345 346 347 346 344 342 340 332 326 334 334 330 329 327 322 318 314 310 308 304 296 314 127 125 106 87 19 79 129 121 119 115 114 103 101 110 111 108
343 343 345 345 346 345 348 345 343 340 336 334 332 329 334 329 328 327 325 320 314 310 316 318 325 343 7 75 138 138 136 144 139 129 122 121 119 117 114 114 117 115
343 345 346 346 347 346 345 343 339 336 337 337 331 327 329 331 326 325 324 320 313 313 318 318 315 279 321 145 156 149 146 140 150 147 138 136 130 129 128 126 118 120
342 346 348 348 347 344 340 338 336 334 334 336 331 326 329 327 328 327 328 324 318 311 310 308 307 291 70 141 153 150 140 137 136 130 129 133 135 139 140 138 135 126
337 342 346 346 344 341 337 334 333 333 334 334 333 329 330 329 328 332 329 328 322 317 312 306 299 299 201 121 111 120 130 130 126 119 115 116 125 135 139 141 143 140
340 343 345 344 340 336 335 333 329 330 332 331 333 327 328 333 331 332 334 329 324 321 316 305 310 308 217 139 124 114 111 110 113 117 116 115 113 108 116 125 135 135
338 340 340 335 337 333 329 330 330 328 330 331 329 326 328 332 335 332 331 329 322 326 319 313 312 315 152 141 134 126 124 118 116 94 94 97 97 96 92 97 108 113
335 334 335 332 326 327 330 328 328 328 326 326 328 329 329 331 331 329 321 326 321 324 325 332 328 329 140 134 133 135 129 127 129 120 106 89 81 73 68 70 72 76
331 333 332 329 328 325 328 331 327 325 321 321 324 323 322 323 323 324 325 327 329 331 332 335 334 317 270 167 150 137 133 134 134 133 127 112 105 101 96 85 83 79
330 332 331 328 326 327 326 327 327 324 320 317 320 320 321 325 326 325 332 329 328 329 327 332 334 332 16 111 112 139 139 129 123 130 128 124 123 116 104 91 88 95
332 332 332 329 324 323 324 325 325 325 319 314 319 319 323 323 327 335 333 324 324 326 325 327 326 335 91 103 104 106 119 127 132 132 114 118 124 125 122 114 101 96
332 330 329 327 327 324 322 320 319 317 316 317 320 323 321 318 326 325 320 323 317 319 331 326 329 23 119 121 120 116 118 113 110 108 104 98 108 114 115 115 112 103
330 330 327 326 326 322 319 318 317 315 315 318 318 314 318 321 315 324 325 319 318 323 334 340 353 116 119 118 114 108 117 107 82 90 90 86 91 102 114 117 117 110
330 329 325 321 319 318 317 316 316 314 313 314 310 312 312 313 317 319 318 319 309 308 331 5 40 107 112 106 103 104 101 93 68 69 73 81 80 86 99 105 110 118
327 326 321 318 317 316 315 313 312 311 313 315 313 307 305 303 308 313 311 312 306 299 75 67 104 120 116 112 107 105 103 95 86 86 81 80 76 64 62 76 89 94
325 320 317 315 314 314 314 311 308 308 310 311 310 303 293 292 293 296 307 318 311 293 131 128 139 129 123 118 117 119 105 99 95 90 86 77 72 60 66 68 62 75
320 315 311 311 310 310 309 307 306 307 307 309 310 304 292 290 289 297 299 307 321 309 164 132 138 136 129 128 130 121 109 110 103 94 84 80 64 63 72 74 74 78
313 310 307 306 305 302 302 301 300 297 295 298 303 304 295 283 289 292 300 309 338 353 260 143 137 140 135 136 132 126 122 122 117 102 101 102 93 72 67 92 100 99
307 305 302 300 298 296 295 296 295 293 293 295 295 293 283 276 279 261 271 314 342 86 70 119 136 143 144 143 138 132 127 126 117 118 113 111 110 102 87 96 102 105
302 298 294 292 291 291 291 288 287 289 289 288 289 289 278 264 267 266 236 252 254 126 103 134 142 145 150 148 143 135 131 119 124 126 127 129 125 123 124 125 122 114